Location: Unspecified
(41.5000°N, 0.0000°E)
Time: 20:22:57
(UTC+00:00)

Vanguard 2 - Pass Details

Date: 27 June 2019
Orbit: 554 x 2938 km, 32.9° (Epoch: 21 August)

Event Time Altitude Azimuth Distance (km) Brightness Sun altitude
Rises 09:20:19 0° 258° (WSW) 3,095 10.3 51.6°
Reaches altitude 10° 09:22:28 10° 249° (WSW) 2,351 9.8 52.0°
Maximum altitude 09:27:32 38° 182° (S) 1,529 9.7 52.9°
Drops below altitude 10° 09:35:24 10° 118° (ESE) 3,656 11.8 54.3°
Sets 09:39:36 0° 112° (ESE) 5,068 12.3 55.1°
